Location: Neuvy Saint Sepulchre
(46.5953°N, 1.8122°E)
Time: 20:49:00
(UTC+01:00)

ISS - Pass Details

Date: 23 March 2023
Orbit: 414 x 422 km, 51.6° (Epoch: 25 March)

Event Time Altitude Azimuth Distance (km) Brightness Sun altitude
Rises 21:03:01 0° 286° (WNW) 2,357 1.6 -19.8°
Reaches altitude 10° 21:05:14 10° 296° (WNW) 1,492 0.3 -20.1°
Maximum altitude 21:08:19 33° 3° (N) 725 -2.4 -20.6°
Enters shadow 21:08:41 32° 18° (NNE) 742 -2.5 -20.7°
